Location: Rounton
(54.4000°N, 1.3500°W)
Time: 22:17:24
(UTC+00:00)

Tiros 1 despin weight - Pass Details

Date: 06 December 2021
Orbit: 592 x 641 km, 48.2° (Epoch: 16 January)

Event Time Altitude Azimuth Distance (km) Brightness Sun altitude
Rises 14:12:02 0° 244° (WSW) 2,833 ? 7.7°
Reaches altitude 10° 14:14:28 10° 236° (SW) 1,927 ? 7.5°
Maximum altitude 14:18:28 34° 171° (S) 975 ? 7.2°
Drops below altitude 10° 14:22:27 10° 106° (ESE) 1,923 ? 6.9°
Sets 14:24:52 0° 97° (E) 2,826 ? 6.7°
